星链-31162 (STARLINK-31162 )

导读

STARLINK-31162是美国SpaceX星链互联网项目的低轨通信卫星,于2024年1月15日发射入轨,属于星链第二代星座部署批次,采用Starlink v2.0 mini平台设计。它运行在近地轨道,配备相控阵天线与激光星间链路,可提供高速低延迟宽带服务,填补偏远地区网络覆盖空白,是SpaceX构建全球卫星互联网星座的重要组成单元。

Basic Information
目录编号:
58791
目录名称:
STARLINK-31162
国际标识:
2024-012E
轨道中心:
EARTH
卫星名称:
星链-31162
卫星全名:
星链-31162 (STARLINK-31162 )
卫星状态:
在轨 (已飞行882 天)
发射日期:
2024-01-15 UTC
国别 :
美国 (US)
星等 :
--
Orbit Information
数据来源 国际轨道数据 AOE轨道数据
星历时间 2026-06-15T02:15:42+0800
11小时前
查看轨道信息
2026-06-15T08:00:00+0800
5小时前
查看轨道信息
半长轴 6861.177km 6861.155km
偏心率 0.0001186 0.0002017
轨道倾角 43.010° 43.009°
近地点辐角 266.885° 197.388°
升交点赤经 336.893° 335.528°
平近点角 93.187° 39.099°
近地点 482.226km 481.634km
远地点 483.854km 484.402km
周期 94.267分钟 94.266分钟
每日圈数 15.275831 15.275907
Detailed Information
固有亮度:
5
最大亮度:
0.3
卫星平台:
Starlink v2.0 mini
覆盖范围:
全球
运营商:
太空探索技术公司
运营商所在国:
美国
制造商(研发单位):
太空探索技术公司
制造商所在国:
美国
使用方式:
暂无
Satellite Introduction
星链(Starlink)计划是由太空探索技术公司(SpaceX)提出的一个巨型低轨卫星互联网星座项目,计划在2019年至2024年间在太空搭建由约1.2万颗卫星组成的“星链”网络,其中1584颗将部署在地球上空550千米处的近地轨道,并从2020年开始工作。该卫星仍在工作。
2D Orbit Map
3D Orbit Map
Orbit Altitude Analysis Chart
Orbit Inclination Analysis Chart
Orbit Comprehensive Analysis Chart
View Comprehensive Chart